SERIAL,TIME,MODEL,SN(OPTODE),OXYGEN,SATURATION,TEMPERATURE,CALPHASE,TCPHASE,C1RPH,C2RPH,C1AMP,C2AMP,RAWTEMP,CHECK
13,1336173970,4330,860,232.7346038818359400,77.2912521362304700,17.0643196105957030,31.1864109039306640,32.0349082946777340,35.7553291320800800,3.7204129695892334,652.2252807617188000,800.6884765625000000,200.5709991455078000,3501
13,1336177566,4330,860,229.7928009033203000,76.1473922729492200,16.9596595764160160,31.3822593688964840,32.2278594970703100,35.9207496643066400,3.6928861141204834,657.6038818359375000,801.7907104492188000,204.0122985839843800,14401
13,1336181166,4330,860,228.0247039794922000,75.4978637695312500,16.9193992614746100,31.4907608032226560,32.3347511291503900,36.0252113342285160,3.6904530525207520,660.4003295898438000,802.1694946289062000,205.3359985351562500,54688
13,1336184766,4330,860,224.1103973388672000,73.6253128051757800,16.5481395721435550,31.8656101226806640,32.7040405273437500,36.3918190002441400,3.6877820491790770,670.3942871093750000,805.9301147460938000,217.5449066162109400,39374
13,1336188366,4330,860,220.6683959960937500,72.3493881225586000,16.4530906677246100,32.0918998718261700,32.9269790649414060,36.6111984252929700,3.6842188835144043,676.3106079101562000,806.9058227539062000,220.6710052490234400,28333
13,1336191966,4330,860,220.5446929931640600,72.2964935302734400,16.4450092315673830,32.1024017333984400,32.9373207092285160,36.6165809631347660,3.6792600154876710,676.5784301757812000,807.0360717773438000,220.9367980957031200,4569
13,1336195566,4330,860,219.0191040039062500,71.1123199462890600,15.9932298660278320,32.3969306945800800,33.2274894714355500,36.9064598083496100,3.6789700984954834,684.6571044921875000,811.7197265625000000,235.7962951660156200,60538
13,1336199166,4330,860,217.9051055908203000,70.6707763671875000,15.9401502609252930,32.4825592041015600,33.3118400573730500,36.9905281066894500,3.6786880493164062,686.8364868164062000,812.2028198242188000,237.5420989990234400,17608
13,1336202766,4330,860,217.3650970458984400,70.4418182373046900,15.9042701721191400,32.5293006896972660,33.3578910827636700,37.0344505310058600,3.6765670776367188,688.0734252929688000,812.5654296875000000,238.7223968505859400,38091
13,1336206366,4330,860,213.7142944335937500,68.5729675292968800,15.4389495849609380,32.9534492492675800,33.7757492065429700,37.4506187438964840,3.6748731136322020,699.4694824218750000,817.6511230468750000,254.0256042480468800,28168
13,1336209966,4330,860,212.2080993652343800,67.8692779541015600,15.2881202697753900,33.1104087829589840,33.9303817749023440,37.6016998291015600,3.6713180541992188,703.5958251953125000,819.2783203125000000,258.9855041503906000,32336
13,1336213566,4330,860,211.9682006835937500,67.7948837280273400,15.2897500991821290,33.1234397888183600,33.9432182312011700,37.6114196777343750,3.6681981086730957,703.9948120117188000,819.1580200195312000,258.9320068359375000,10106
13,1336217166,4330,860,209.5717010498047000,66.3219528198242200,14.7994298934936520,33.4986305236816400,34.3128395080566400,37.9840087890625000,3.6711649894714355,714.3604736328125000,824.4586181640625000,275.0508117675781000,19252
13,1336220766,4330,860,208.4664001464843800,65.7990036010742200,14.6784601211547850,33.6215095520019500,34.4339103698730500,38.1014595031738300,3.6675488948822020,717.6782226562500000,825.8464965820312000,279.0263977050781000,22416
13,1336223279,4330,860,208.8852996826172000,65.9019470214843800,14.6580600738525390,33.6073608398437500,34.4199714660644500,38.0863304138183600,3.6663670539855957,717.4296875000000000,825.6026000976562000,279.6965026855469000,24556
13,1336223499,4330,860,208.6239013671875000,66.0874176025390600,14.8451099395751950,33.5305213928222660,34.3442611694335940,38.0145416259765600,3.6702799797058105,715.2100830078125000,824.6431884765625000,273.5494079589844000,37304
13,1336223609,4330,860,209.6033935546875000,66.5877380371093800,14.9770402908325200,33.4099998474121100,34.2255287170410160,37.8947181701660160,3.6691889762878420,711.8748168945312000,823.0294799804688000,269.2128906250000000,44809
13,1336223719,4330,860,210.7456054687500000,67.1768722534179700,15.1332101821899410,33.2685089111328100,34.0861396789550800,37.7551498413085940,3.6690139770507812,708.0430908203125000,821.4769287109375000,264.0787963867187500,22620
13,1336223828,4330,860,211.3524932861328000,67.5805435180664000,15.2777395248413090,33.1639709472656250,33.9831504821777340,37.6528015136718750,3.6696550846099854,705.1129760742188000,819.8041992187500000,259.3268127441406000,9993
13,1336223938,4330,860,212.6865997314453000,68.2970886230468800,15.4757404327392580,32.9933509826660160,33.8150596618652340,37.4871711730957000,3.6721119880676270,700.5590209960938000,818.0833740234375000,252.8159027099609400,13317
13,1336224048,4330,860,213.0095062255859400,68.6182327270507800,15.6238698959350590,32.9037208557128900,33.7267608642578100,37.3996505737304700,3.6728899478912354,698.0366210937500000,816.2534790039062000,247.9443969726562500,54678
13,1336224169,4330,860,214.5063018798828000,69.3063964843750000,15.7630796432495120,32.7536697387695300,33.5789299011230500,37.2533302307128900,3.6744079589843750,694.0194702148438000,814.7258300781250000,243.3659973144531200,8185
13,1336224282,4330,860,216.8150939941406200,70.3322067260742200,15.9501399993896480,32.5373191833496100,33.3657798767089840,37.0424003601074200,3.6766200065612793,688.2009887695312000,812.6823120117188000,237.2135925292968800,12594
13,1336224414,4330,860,217.3818054199218800,70.9052963256836000,16.2093105316162100,32.3839111328125000,33.2146492004394500,36.8947982788085940,3.6801450252532960,683.9163818359375000,810.2338867187500000,228.6893005371093800,12773
13,1336224537,4330,860,218.8751983642578000,71.7772216796875000,16.4635105133056640,32.1832885742187500,33.0170097351074200,36.7004508972168000,3.6834340095520020,678.4923706054688000,807.5034179687500000,220.3285064697265600,26564
13,1336224669,4330,860,222.6300964355468800,73.2632675170898400,16.6287403106689450,31.9057197570800780,32.7435607910156250,36.4293518066406250,3.6857910156250000,670.9901733398438000,805.3944091796875000,214.8941955566406200,10984
13,1336224801,4330,860,225.0014953613281200,74.3163528442382800,16.8036804199218750,31.7000102996826170,32.5409011840820300,36.2275009155273440,3.6865999698638916,665.4335937500000000,803.6931762695312000,209.1412048339843800,14598
13,1336224936,4330,860,226.9026031494140600,75.1574401855468800,16.9391803741455080,31.5388698577880860,32.3821487426757800,36.0693397521972660,3.6871869564056396,661.1005859375000000,802.1909790039062000,204.6853942871093800,13327
13,1336225056,4330,860,229.3424072265625000,76.1352310180664000,17.0458106994628900,31.3654594421386720,32.2112998962402340,35.9021492004394500,3.6908419132232666,656.4310913085938000,800.9224853515625000,201.1795959472656200,56097
13,1336225179,4330,860,231.6213989257812500,77.0595703125000000,17.1501693725585940,31.2027893066406250,32.0510482788085940,35.7425193786621100,3.6914670467376710,652.1475219726562000,799.8723144531250000,197.7485961914062500,38939
13,1336225288,4330,860,234.1257019042968800,78.0413970947265600,17.2416400909423830,31.0362491607666000,31.8869800567626950,35.5770797729492200,3.6901021003723145,647.6245727539062000,798.9113769531250000,194.7415008544922000,9593
13,1336225408,4330,860,232.8193969726562500,77.7675170898437500,17.3415107727050780,31.0554409027099600,31.9058799743652340,35.5980796813964840,3.6921920776367188,648.2373046875000000,798.1444702148438000,191.4586029052734400,44651
13,1336225521,4330,860,233.8506011962890600,78.2637634277343800,17.4349403381347660,30.9620094299316400,31.8138408660888670,35.5072402954101560,3.6933979988098145,645.7825927734375000,797.1668701171875000,188.3878936767578000,60580
13,1336225641,4330,860,234.6961975097656200,78.6773910522461000,17.5150299072265620,30.8840293884277340,31.7370204925537100,35.4311599731445300,3.6941380500793457,643.8306274414062000,796.5139160156250000,185.7557983398437500,972
13,1336225774,4330,860,233.9830017089843800,78.5300369262695300,17.5713901519775400,30.8934097290039060,31.7462596893310550,35.4410018920898440,3.6947400569915770,644.1102294921875000,795.8941040039062000,183.9035949707031200,63716
13,1336225906,4330,860,232.0166931152343800,78.0769271850586000,17.6995201110839840,30.9327697753906250,31.7850303649902340,35.4820785522460940,3.6970438957214355,645.2916259765625000,794.8920288085938000,179.6936035156250000,50163
13,1336226071,4330,860,230.7770996093750000,77.7968368530273400,17.7848606109619140,30.9561500549316400,31.8080692291259770,35.5045204162597660,3.6964418888092040,646.1813964843750000,794.1173706054688000,176.8901062011718800,54029
13,1336226214,4330,860,229.6822967529297000,77.7203826904296900,17.9677906036376950,30.9279994964599600,31.7803306579589840,35.4799804687500000,3.6996459960937500,645.4884033203125000,792.9432983398438000,170.8813934326172000,27725
13,1336226336,4330,860,223.9801025390625000,76.1402511596679700,18.1916198730468750,31.1172199249267580,31.9667491912841800,35.6703186035156250,3.7035679817199707,650.7142944335938000,790.9025878906250000,163.5321044921875000,35205
13,1336226391,4330,860,224.4367980957031200,76.6089401245117200,18.3917999267578120,31.0032501220703120,31.8544692993164060,35.5598297119140600,3.7053599357604980,647.4995117187500000,789.3588256835938000,156.9615936279297000,27523
13,1336226467,4330,860,230.4662017822265600,78.9786834716796900,18.5855102539062500,30.6117591857910160,31.4687900543212900,35.1774711608886700,3.7086870670318604,636.9622802734375000,787.2929077148438000,150.6060943603515600,32415
13,1336226522,4330,860,232.5915985107422000,80.2427215576171900,18.9150104522705080,30.3601093292236330,31.2208690643310550,34.9323005676269500,3.7114260196685790,630.2448730468750000,785.1295776367188000,139.8016052246093800,38403
13,1336226577,4330,860,239.7404022216797000,83.0350875854492200,19.1093902587890620,29.9304790496826170,30.7976093292236330,34.5128288269043000,3.7152180671691895,618.4204101562500000,782.5208129882812000,133.4320068359375000,11666
13,1336226632,4330,860,249.5473937988281200,86.7563629150390600,19.2950897216796880,29.3979206085205080,30.2729492187500000,33.9915618896484400,3.7186129093170166,604.1137695312500000,780.4055175781250000,127.3497009277343800,5637
13,1336226687,4330,860,254.9031982421875000,88.7180786132812500,19.3509502410888670,29.1361808776855470,30.0150794982910160,33.7371902465820300,3.7221069335937500,597.1704101562500000,779.1278076171875000,125.5208969116211000,34455
13,1336226742,4330,860,259.2280883789062500,90.2514877319336000,19.3664608001709000,28.9419708251953120,29.8237495422363280,33.5455284118652340,3.7217791080474854,591.8173828125000000,778.4752807617188000,125.0130996704101600,45795
13,1336226819,4330,860,262.2803039550781000,91.3152999877929700,19.3670902252197270,28.8117198944091800,29.6954402923584000,33.4174613952636700,3.7220149040222170,588.4517211914062000,778.4442138671875000,124.9923019409179700,9705
13,1336226874,4330,860,263.0368957519531000,91.5820770263671900,19.3689193725585940,28.7788105010986330,29.6630191802978500,33.3833084106445300,3.7202908992767334,587.7359008789062000,778.3140869140625000,124.9324035644531200,2392
13,1336226929,4330,860,263.4053955078125000,91.7130432128906200,19.3703708648681640,28.7627391815185550,29.6471900939941400,33.3687896728515600,3.7216029167175293,587.4224243164062000,778.2241821289062000,124.8852005004882800,58255
13,1336226984,4330,860,263.4742126464844000,91.7363433837890600,19.3699893951416000,28.7599792480468750,29.6444702148437500,33.3662414550781250,3.7217710018157960,587.2913818359375000,778.3060302734375000,124.8975982666015600,5741
13,1336227039,4330,860,263.5382080078125000,91.7586364746093800,19.3700408935546880,28.7571907043457030,29.6417198181152340,33.3612899780273440,3.7195739746093750,587.4282226562500000,778.3449096679688000,124.8958969116211000,39088
13,1336227094,4330,860,263.5773010253906000,91.7740936279296900,19.3709907531738280,28.7551307678222660,29.6396903991699220,33.3587608337402340,3.7190699577331543,587.4669799804688000,778.4149780273438000,124.8647994995117200,5560
13,1336227172,4330,860,263.7511901855469000,91.8388137817382800,19.3732795715332030,28.7467498779296880,29.6314296722412100,33.3502197265625000,3.7187879085540770,587.2811279296875000,778.6652832031250000,124.7899017333984400,12551
13,1336227249,4330,860,263.9172058105469000,91.9017486572265600,19.3760299682617200,28.7387905120849600,29.6235904693603500,33.3420295715332000,3.7184450626373290,587.2885131835938000,778.8170776367188000,124.6998977661132800,29211
13,1336227327,4330,860,264.1485900878906000,91.9856033325195300,19.3778095245361330,28.7282505035400400,29.6131992340087900,33.3336601257324200,3.7204511165618896,587.2100219726562000,778.8187866210938000,124.6416015625000000,38913
13,1336227416,4330,860,264.0116882324219000,91.9394836425781200,19.3786792755126950,28.7337608337402340,29.6186408996582030,33.3360290527343750,3.7173919677734375,587.1442260742188000,778.8903808593750000,124.6131973266601600,2928
13,1336227498,4330,860,264.0802917480469000,91.9683074951171900,19.3813209533691400,28.7296295166015620,29.6145706176757800,33.3322982788085940,3.7177278995513916,587.2064208984375000,778.9575195312500000,124.5264968872070300,38515
13,1336227586,4330,860,264.1080932617187500,91.9882736206054700,19.3868808746337900,28.7262191772460940,29.6112098693847660,33.3296890258789060,3.7184751033782960,587.2346191406250000,778.9970092773438000,124.3447036743164000,19517
13,1336227676,4330,860,264.0086975097656000,91.9514389038086000,19.3856697082519530,28.7308101654052730,29.6157302856445300,33.3332786560058600,3.7175519466400146,587.3933715820312000,779.0571899414062000,124.3842010498046900,11248
13,1336227764,4330,860,264.1762084960937500,92.0047531127929700,19.3829593658447270,28.7248802185058600,29.6098899841308600,33.3270301818847660,3.7171399593353270,587.3546142578125000,779.2006835937500000,124.4728012084961000,27559
13,1336227869,4330,860,264.3800048828125000,92.0809173583984400,19.3857707977294920,28.7151298522949220,29.6002807617187500,33.3167610168457000,3.7164840698242188,587.1810302734375000,779.3095703125000000,124.3809967041015600,14895
13,1336227960,4330,860,264.0758972167969000,91.9883270263671900,19.3929805755615230,28.7247390747070300,29.6097507476806640,33.3252296447753900,3.7154850959777830,587.4874877929688000,779.3363037109375000,124.1446990966796900,40499
13,1336228037,4330,860,264.1304016113281000,92.0096664428711000,19.3942203521728500,28.7221508026123050,29.6071891784667970,33.3236618041992200,3.7164690494537354,587.5938110351562000,779.3569946289062000,124.1041030883789000,12771
13,1336228093,4330,860,264.1203002929687500,92.0068664550781200,19.3946399688720700,28.7223892211914060,29.6074409484863280,33.3236885070800800,3.7162549495697020,587.6317138671875000,779.2233276367188000,124.0906982421875000,38009
13,1336228167,4330,860,264.0917968750000000,91.9997634887695300,19.3961391448974600,28.7228202819824220,29.6078605651855470,33.3256111145019500,3.7177510261535645,587.6417846679688000,779.3889770507812000,124.0416030883789000,61111
13,1336228223,4330,860,264.1802978515625000,92.0329513549804700,19.3974208831787100,28.7186203002929700,29.6037197113037100,33.3206710815429700,3.7169489860534670,587.5764160156250000,779.3400268554688000,123.9993972778320300,63983
13,1336228279,4330,860,264.1111145019531000,92.0108795166015600,19.3985195159912100,28.7209796905517580,29.6060504913330080,33.3206710815429700,3.7146220207214355,587.5360717773438000,779.3461303710938000,123.9635009765625000,27314
13,1336228335,4330,860,264.2825012207031000,92.0752334594726600,19.4010295867919920,28.7128391265869140,29.5980205535888670,33.3156013488769500,3.7175750732421875,587.5217895507812000,779.4520874023438000,123.8813018798828100,19325
13,1336228391,4330,860,264.4592895507812500,92.1391677856445300,19.4022693634033200,28.7048397064209000,29.5901508331298830,33.3055992126464840,3.7154459953308105,587.4412231445312000,779.5305786132812000,123.8407974243164000,50926
13,1336228447,4330,860,264.6597900390625000,92.2155914306640600,19.4058208465576170,28.6948604583740230,29.5803108215332030,33.2960891723632800,3.7157750129699707,587.2069702148438000,779.5941772460938000,123.7244033813476600,65249
13,1336228505,4330,860,265.0133972167969000,92.3449630737304700,19.4091491699218750,28.6786098480224600,29.5643100738525400,33.2789192199707000,3.7146070003509520,586.8483276367188000,779.6727294921875000,123.6156005859375000,64044
13,1336228561,4330,860,265.5208129882812500,92.5332031250000000,19.4152698516845700,28.6549892425537100,29.5410308837890620,33.2563209533691400,3.7152860164642334,586.1652221679688000,779.7001953125000000,123.4151992797851600,22180
13,1336228617,4330,860,266.8995971679687500,93.0291366577148400,19.4235591888427730,28.5941505432128900,29.4811000823974600,33.1964912414550800,3.7153849601745605,584.6510009765625000,779.6544799804688000,123.1440963745117200,2619
13,1336228673,4330,860,268.2683105468750000,93.5277709960937500,19.4349994659423830,28.5326309204101560,29.4204902648925780,33.1372795104980500,3.7167971134185790,583.0983886718750000,779.7730712890625000,122.7695999145507800,19421
13,1336228729,4330,860,269.8533020019531000,94.1116333007812500,19.4515209197998050,28.4604892730712900,29.3494205474853500,33.0657501220703100,3.7163310050964355,581.1390991210938000,779.6881103515625000,122.2285003662109400,442
13,1336228785,4330,860,271.3121032714844000,94.6424484252929700,19.4631404876709000,28.3962402343750000,29.2861309051513670,33.0024604797363300,3.7163391113281250,579.5485839843750000,779.6707763671875000,121.8481979370117200,33455
13,1336228843,4330,860,272.4413146972656000,95.0834426879882800,19.4877891540527340,28.3399600982666000,29.2306709289550780,32.9465217590332000,3.7158429622650146,578.2186279296875000,779.6085205078125000,121.0414962768554700,57405
13,1336228899,4330,860,273.2692871093750000,95.4016571044921900,19.5030403137207030,28.3002490997314450,29.1915493011474600,32.9075889587402340,3.7160420417785645,576.9614257812500000,779.5817871093750000,120.5426025390625000,19824
13,1336228955,4330,860,274.5024108886719000,95.9144363403320300,19.5458202362060550,28.2327194213867200,29.1250190734863280,32.8417091369628900,3.7166819572448730,575.5067138671875000,779.3679199218750000,119.1427993774414000,35044
13,1336229011,4330,860,275.2544860839844000,96.2434463500976600,19.5801200866699220,28.1881599426269530,29.0811290740966800,32.7956390380859400,3.7145080566406250,574.2373046875000000,779.2321166992188000,118.0204010009765600,60581
13,1336229067,4330,860,276.1487121582031000,96.6035232543945300,19.6045894622802730,28.1423091888427730,29.0359592437744140,32.7518386840820300,3.7158811092376710,573.0010986328125000,778.9409179687500000,117.2199020385742200,5216
13,1336229123,4330,860,276.6364135742187500,96.8123931884765600,19.6243095397949220,28.1145401000976560,29.0086002349853500,32.7242889404296900,3.7156910896301270,572.3206176757812000,778.7827758789062000,116.5746002197265600,57182
13,1336229197,4330,860,276.5874938964844000,97.0978927612304700,19.7802200317382800,28.0510406494140620,28.9460391998291000,32.6649017333984400,3.7188639640808105,570.8464965820312000,778.2337036132812000,111.4757995605468800,37205
13,1336229253,4330,860,276.0195922851562500,97.1915969848632800,19.9314193725585940,28.0104408264160160,28.9060401916503900,32.6254005432128900,3.7193529605865480,569.5626220703125000,777.1373901367188000,106.5332031250000000,49957
13,1336229342,4330,860,275.1654052734375000,97.2876586914062500,20.1366596221923830,27.9586906433105470,28.8550605773925780,32.5774497985839840,3.7223820686340330,567.9937133789062000,774.8624267578125000,99.8280868530273400,26395
13,1336229561,4330,860,274.0953063964844000,97.1374130249023400,20.2550106048584000,27.9519290924072270,28.8484001159667970,32.5743789672851560,3.7259829044342040,567.9210205078125000,773.3729858398438000,95.9639129638671900,47785
13,1336229639,4330,860,273.4689941406250000,97.0233230590820300,20.3110694885253900,27.9536495208740230,28.8500995635986330,32.5784797668457000,3.7283780574798584,567.9415283203125000,772.7130737304688000,94.1340637207031200,12766
13,1336229717,4330,860,272.7450866699219000,96.7863311767578100,20.3214092254638670,27.9782791137695300,28.8743591308593750,32.6020812988281250,3.7277219295501710,568.5861816406250000,772.3112792968750000,93.7966232299804700,50743
13,1336229811,4330,860,272.4408874511719000,96.6773071289062500,20.3208694458007800,27.9907894134521500,28.8866806030273440,32.6152114868164060,3.7285308837890625,568.9360961914062000,772.3056030273438000,93.8142166137695300,10023
13,1336229863,4330,860,272.3695983886719000,96.6775283813476600,20.3341693878173830,27.9881095886230470,28.8840503692626950,32.6139984130859400,3.7299499511718750,569.0117187500000000,772.0938720703125000,93.3803176879882800,43525
13,1336229909,4330,860,272.5694885253906000,96.7716369628906200,20.3462505340576170,27.9750709533691400,28.8711891174316400,32.6005706787109400,3.7293779850006104,568.8856811523438000,772.0142211914062000,92.9860534667968800,35740
13,1336229954,4330,860,272.5241088867187500,96.7646408081054700,20.3509998321533200,27.9749603271484380,28.8710899353027340,32.6012115478515600,3.7301249504089355,568.8865966796875000,771.9091186523438000,92.8308486938476600,54633
13,1336230000,4330,860,272.3522033691406000,96.7535629272461000,20.3770904541015620,27.9708099365234380,28.8670005798339840,32.5957794189453100,3.7287750244140625,568.9199829101562000,771.8790283203125000,91.9797363281250000,833
13,1336230046,4330,860,272.3829956054687500,96.7622375488281200,20.3758792877197270,27.9701900482177730,28.8663902282714840,32.5963783264160160,3.7299880981445312,568.7907714843750000,771.7949218750000000,92.0191879272461000,9887
13,1336230102,4330,860,272.3258056640625000,96.7554473876953100,20.3829307556152340,27.9696197509765620,28.8658294677734380,32.5933914184570300,3.7275619506835938,568.9163818359375000,771.7282714843750000,91.7891464233398400,21852
13,1336230194,4330,860,272.4122924804687500,96.7726364135742200,20.3759002685546880,27.9690895080566400,28.8653106689453120,32.5931205749511700,3.7278060913085938,569.0999145507812000,772.0908203125000000,92.0185928344726600,6876
13,1336230267,4330,860,272.3439941406250000,96.7528610229492200,20.3782291412353500,27.9707508087158200,28.8669395446777340,32.5941314697265600,3.7271881103515625,569.0897827148438000,772.2601928710938000,91.9424667358398400,43157
13,1336230364,4330,860,272.3395080566406000,96.7310409545898400,20.3676605224609380,27.9754104614257800,28.8715400695800780,32.5970497131347660,3.7255170345306396,569.4326782226562000,772.4672241210938000,92.2872772216796900,19200
13,1336230428,4330,860,272.6134033203125000,96.8639907836914000,20.3862705230712900,27.9565296173095700,28.8529300689697270,32.5808410644531250,3.7279129028320312,568.8745727539062000,772.2260131835938000,91.6801834106445300,26832
13,1336230471,4330,860,272.1917114257812500,96.7058563232421900,20.3819198608398440,27.9753894805908200,28.8715095520019530,32.6006202697753900,3.7291030883789062,569.5866088867188000,772.2003784179688000,91.8218994140625000,26733
13,1336231772,4330,860,266.6776123046875000,94.7280273437500000,20.3719501495361330,28.2036495208740230,29.0963897705078120,32.8536796569824200,3.7572939395904540,575.9652099609375000,773.2039794921875000,92.1472167968750000,48249
13,1336231791,4330,860,269.7601013183594000,95.5522384643554700,20.2292804718017580,28.1372108459472660,29.0309391021728500,32.7792091369628900,3.7482678890228270,574.3792724609375000,772.5764770507812000,96.8037033081054700,4027
13,1336231811,4330,860,266.9614868164062500,94.8680267333984400,20.3927993774414060,28.1832809448242200,29.0763206481933600,32.8170890808105500,3.7407679557800293,575.6779785156250000,772.4041137695312000,91.4671630859375000,62526